Regional Weather Roundup
Issued by NWS

Home | Current Version | Previous Version | Text Only | Print | Product List | Glossary On
Versions: 1 2 3 4 5 6 7 8 9 10 11 12 13 14 15 16 17 18 19 20 21 22 23 24 25 26 27 28 29 30 31 32 33 34 35 36 37 38 39 40 41 42 43 44 45 46 47 48 49 50
036
ASUS43 KTOP 210108
RWRKS

WEATHER ROUNDUP FOR KANSAS
NATIONAL WEATHER SERVICE GOODLAND KS
800 PM CDT THU JUL 20 2017

NOTE:  "FAIR" INDICATES FEW OR NO CLOUDS BELOW 12,000 FEET WITH NO
SIGNIFICANT WEATHER AND/OR OBSTRUCTIONS TO VISIBILITY.

KSZ001>006-013>018-027>032-041>047-210200-
NORTHWEST KANSAS

CITY           SKY/WX    TMP DP  RH WIND       PRES   REMARKS
GOODLAND       SUNNY     92  64  39 S8        29.94S
HAYS           CLEAR     98  58  26 S12       29.88S HX  97
HILL CITY      SUNNY     98  58  26 S13       29.87F HX  97
RUSSELL        CLEAR     97  59  28 S15       29.87S HX  96
$$

KSZ061>065-074>080-084>089-210200-
SOUTHWEST KANSAS

CITY           SKY/WX    TMP DP  RH WIND       PRES   REMARKS
DODGE CITY     CLEAR     95  55  26 S10       29.94S
ELKHART          N/A     91  51  25 S13         N/A
GARDEN CITY    SUNNY     93  59  31 S13       29.93S
LIBERAL        SUNNY     95  55  26 S14       29.96S
PRATT          CLEAR     94  56  27 S13       29.93S
$$

KSZ066>073-081>083-090>101-210200-
SOUTHEAST KANSAS

CITY           SKY/WX    TMP DP  RH WIND       PRES   REMARKS
CHANUTE        CLEAR     92  71  50 S13       29.97S HX  98
COFFEYVILLE    CLEAR     91  74  57 SE9       29.97S HX 100
HUTCHINSON     PTCLDY    98  60  28 S12       29.91S HX  98
MEDICINE LODGE   N/A     98  58  26 S8        29.91S HX  97
NEWTON         CLEAR     94  67  41 SE14G22   29.94S HX  97
PARSONS        CLEAR     90  73  57 SE6       29.98S HX  98
WICHITA INTL   PTCLDY    94  67  41 SE15      29.92S HX  97
WICHITA JABRA  CLEAR     94  66  39 SE15      29.93S HX  97
WICHITA MCCONL CLEAR     94  64  37 S16       29.94R HX  96
WINFIELD       CLEAR     93  67  42 SE9       29.95S HX  96
$$

KSZ007>012-019>026-033>040-048>060-102>105-210200-
NORTHEAST KANSAS

CITY           SKY/WX    TMP DP  RH WIND       PRES   REMARKS
CONCORDIA      CLEAR     93  68  43 S9        29.88S HX  97
EMPORIA        CLEAR     92  69  47 SE9       29.94S HX  97
LAWRENCE       CLEAR     92  77  61 SE8       29.93S HX 105
MANHATTAN      CLEAR     96  67  38 S8        29.89S HX 100
MARYSVILLE     CLEAR     95  68  41 SE3       29.90S HX  99
OLATHE IND     CLEAR     90  75  61 S9        29.97R HX 100
OLATHE EXE     CLEAR     88  77  69 S9        29.97R HX 100
SALINA         CLEAR    100  62  28 S14       29.88S HX 101
TOPEKA BILLARD CLEAR     94  72  48 S9        29.92S HX 102
TOPEKA FORBES  CLEAR     93  74  53 SE8       29.94S HX 103
$$




USA.gov is the U.S. government's official web portal to all federal, state and local government web resources and services.